sat.trackr.live / text

‹ back to catalog

STARLINK-37742

NORAD 69241 · 2026-117D

PAYLOAD ACTIVE UNKNOWN

§ Identity

Operator
Country
US
Launch date
2026-05-29
Launch site
AFETR
Launch vehicle
Mass (kg)
RCS (m²)

Purposes: comms

External: N2YO · Heavens-Above · Gunter

§ Orbital elements

Epoch: 2026-09-19T23:01:31.391040Z

Period
93.85 min
Inclination
53.1588°
Eccentricity
0.0001593
Mean motion
15.34399145 rev/d
Perigee alt
461.6 km
Apogee alt
463.8 km
Semi-major
6,840.8 km
B*
4.3456e-4
RAAN
156.2980°
Arg perigee
80.7396°
Mean anomaly
279.3787°
Rev number
1,758

§ Raw data

STARLINK-377421 69241U 26117D   26262.95939110  .00014334  00000+0  43456-3 0  99932 69241  53.1588 156.2980 0001593  80.7396 279.3787 15.34399145 17584

JSON: /api/v1/satellites/69241 · /tle

For live sub-satellite position, see the globe view (requires WebGL).

§ Visibility from observer

Set your observer location to see the next 7 days of passes ≥ 10°. The values pass through the URL so the page stays shareable.

No JS? Fill the form by hand. The geolocation button needs JavaScript.